Regional Weather Roundup
Issued by NWS

Home | Current Version | Previous Version | Graphics & Text | Print | Product List | Glossary On
Versions: 1 2 3 4 5 6 7 8 9 10 11 12 13 14 15 16 17 18 19 20 21 22 23 24 25 26 27 28 29 30 31 32 33 34 35 36 37 38 39 40 41 42 43 44 45 46 47 48 49 50
000
ASUS43 KIND 220309
RWRIN

WEATHER ROUNDUP FOR INDIANA
NATIONAL WEATHER SERVICE INDIANAPOLIS IN
1100 PM EDT THU AUG 21 2014

NOTE: "FAIR" INDICATES FEW OR NO CLOUDS BELOW 12,000 FEET WITH NO
SIGNIFICANT WEATHER AND/OR OBSTRUCTIONS TO VISIBILITY.

* - STATION DOES NOT REPORT WEATHER SUCH AS PRECIPITATION OR FOG.

+ - STATION NOT QUALITY CONTROLLED BY THE NATIONAL WEATHER SERVICE.
    USE DATA WITH CAUTION...ESPECIALLY DEWPOINT AND RELATIVE
    HUMIDITY OBSERVATIONS.

INZ001>003-010>013-019-020-220400-
NORTHWEST INDIANA

CITY           SKY/WX    TMP DP  RH WIND       PRES   REMARKS
GARY /AIRPORT/ MOCLDY    74  72  94 CALM      29.94S
KNOX *+        CLOUDY    70  67  90 S5        29.95S
LA PORTE +     MOCLDY    70  70 100 CALM      29.97R
MICHIGAN CITY+ PTCLDY    72  72 100 CALM      29.96R
MONTICELLO +   CLOUDY    73  71  96 S3        29.96R
RENSSELAER +   MOCLDY    70  70 100 SE3       29.96S
VALPARAISO     MOCLDY    72  70  93 S3        29.96R

$$

LMZ046-743>745-220400-
SOUTHERN LAKE MICHIGAN

STATION/POSITION TIME  TEMP WIND        PRES
                       AIR  DIR/SP/G
                 (UTC) (F)  (DEG/KT/KT) (MB)
BURNS HARBOR     0300   74  180/  6/  9   N/A
MICHIGAN CITY    0300   74  120/  3/  8   N/A

$$

INZ004-005-014>016-021>024-220400-
NORTH CENTRAL INDIANA

CITY           SKY/WX    TMP DP  RH WIND       PRES   REMARKS
GOSHEN         CLOUDY    73  70  90 SW6       29.97F
LOGANSPORT +   CLOUDY    70  68  94 SE6       29.99R
PERU/GRISSOM   CLOUDY    70  70 100 SE7       30.00R
ROCHESTER +    CLOUDY    73  73 100 SE8       29.98R
SOUTH BEND     MOCLDY    73  68  84 S5        29.97R

$$

INZ006>009-017-018-025>027-220400-
NORTHEAST INDIANA

CITY           SKY/WX    TMP DP  RH WIND       PRES   REMARKS
ANGOLA *+      CLEAR     72  70  94 CALM      29.99R
AUBURN +       CLOUDY    72  70  94 CALM      29.99S FOG
FORT WAYNE     CLOUDY    70  68  93 SW10      29.99R
HUNTINGTON +   CLOUDY    69  68  96 S6        29.99R

$$

INZ028-029-035-036-043>045-051>053-220400-
WEST CENTRAL INDIANA

CITY           SKY/WX    TMP DP  RH WIND       PRES   REMARKS
GREENCASTLE +  CLOUDY    77  73  88 CALM      30.00S
LAFAYETTE      CLOUDY    73  72  96 CALM      29.96S
TERRE HAUTE    MOCLDY    78  74  87 S6        29.99R

$$

INZ030>032-037>040-046>048-054>057-064-065-220400-
CENTRAL INDIANA

CITY           SKY/WX    TMP DP  RH WIND       PRES   REMARKS
CP ATTERBURY + CLOUDY    75  72  88 CALM      30.01R
FRANKFORT +    CLOUDY    72  72 100 CALM      29.99S
INDIANAPOLIS   CLOUDY    80  75  84 N3        30.01R THUNDER
-EAGLE CREEK   TSTM      74  70  87 CALM      30.02R FOG
KOKOMO *+      CLOUDY    70  66  88 SE10      30.01R
MARION +       LGT RAIN  69  68  98 S5        30.03R
MT COMFORT *+  CLOUDY    70  70 100 N9        30.07R
SHELBYVILLE    CLOUDY    80  74  81 S6        30.01R
ZIONSVILLE +   TSTM      72  68  87 SW7       30.00F

$$

INZ033-034-041-042-049-050-058-059-220400-
EAST CENTRAL INDIANA

CITY           SKY/WX    TMP DP  RH WIND       PRES   REMARKS
MUNCIE         LGT RAIN  70  67  90 CALM      30.03S

$$

INZ060-061-067>069-081>083-085>088-220400-
SOUTHWEST INDIANA

CITY           SKY/WX    TMP DP  RH WIND       PRES   REMARKS
EVANSVILLE     PTCLDY    80  72  76 SW9       30.01R
WASHINGTON +   PTCLDY    74  73  98 CALM      30.00R

$$

INZ062-063-066-070>080-084-089>092-220400-
SOUTH CENTRAL AND SOUTHEAST INDIANA

CITY           SKY/WX    TMP DP  RH WIND       PRES   REMARKS
BLOOMINGTON    MOCLDY    75  72  90 SW3       30.01R
SEYMOUR +      MOCLDY    70  63  78 S6        30.01R

$$




USA.gov is the U.S. government's official web portal to all federal, state and local government web resources and services.